Regional Weather Roundup
Issued by NWS

Home | Current Version | Previous Version | Graphics & Text | Print | Product List | Glossary On
Versions: 1 2 3 4 5 6 7 8 9 10 11 12 13 14 15 16 17 18 19 20 21 22 23 24 25 26 27 28 29 30 31 32 33 34 35 36 37 38 39 40 41 42 43 44 45 46 47 48 49 50
000
ASUS43 KOAX 211102
RWRNE

WEATHER ROUNDUP FOR NEBRASKA
NATIONAL WEATHER SERVICE OMAHA NE
600 AM CDT THU AUG 21 2014

NOTES: SATELLITE DATA IS BEING USED TO AUGMENT CLOUD COVER ABOVE
       12000 FEET.
       "FAIR" INDICATES FEW OR NO CLOUDS BELOW 12,000 FEET WITH NO
       SIGNIFICANT WEATHER AND/OR OBSTRUCTIONS TO VISIBILITY.

  * THESE STATIONS DO NOT REPORT WEATHER SUCH AS RAIN...SNOW OR FOG.

NEZ001>004-019>022-054>056-211200-
NEBRASKA PANHANDLE

CITY           SKY/WX    TMP DP  RH WIND       PRES   REMARKS
SCOTTSBLUFF    CLEAR     59  50  72 N8        29.96R
ALLIANCE       MOCLDY    61  53  75 NW7       29.93R
CHADRON        PTCLDY    58  52  80 W9        29.93R
KIMBALL        PTCLDY    60  49  65 W10       30.01R
SIDNEY         CLOUDY    65  55  70 W12       29.98R
$$

NEZ057>060-069>072-079>082-211200-
SOUTHWEST NEBRASKA

CITY           SKY/WX    TMP DP  RH WIND       PRES   REMARKS
NORTH PLATTE   PTCLDY    64  60  87 NW5       29.87R
IMPERIAL       PTCLDY    67  61  81 W3        29.88S
LEXINGTON      CLEAR     68  64  86 E3        29.82R
MCCOOK         CLEAR     68  63  84 NW12      29.84R
OGALLALA       LGT RAIN  65  61  85 N8        29.90F
$$

NEZ005>010-023>029-035>040-094-211200-
NORTH CENTRAL NEBRASKA

CITY           SKY/WX    TMP DP  RH WIND       PRES   REMARKS
VALENTINE      PTCLDY    65  61  87 NW6       29.82R
AINSWORTH      CLEAR     67  61  80 W5        29.82R
BROKEN BOW     PTCLDY    65  62  90 CALM      29.84R
O`NEILL        MOCLDY    73  65  77 SW7       29.78S
ORD            MOCLDY    69  64  84 S5        29.78R
THEDFORD       PTCLDY    68  61  78 W14       29.87R
$$

NEZ041-046>049-061>064-073>077-083>087-211200-
SOUTH CENTRAL NEBRASKA

CITY           SKY/WX    TMP DP  RH WIND       PRES   REMARKS
GRAND ISLAND   CLOUDY    69  66  90 E9        29.80F
AURORA         CLOUDY    70  69  96 SE9       29.81F
HASTINGS       MOCLDY    72  65  78 SE14      29.80S
HEBRON         CLOUDY    73  66  79 N6        29.84R
HOLDREGE       MOCLDY    71  67  88 CALM      29.79S
KEARNEY *      CLOUDY    68  64  88 E9        29.79F
YORK           TSTM      70 N/A N/A S14       29.83F
$$

NEZ011>018-030>034-042>045-211200-
NORTHEAST NEBRASKA

CITY           SKY/WX    TMP DP  RH WIND       PRES   REMARKS
NORFOLK        CLOUDY    71  63  75 W12       29.77R
ALBION         CLOUDY    69  62  80 CALM      29.80R
BLAIR          CLOUDY    78  67  69 SW9       29.79R
COLUMBUS *     CLOUDY    73  61  64 S22G37    29.75F
FREMONT        LGT RAIN  77  68  73 SW15G21   29.79R
TEKAMAH        CLOUDY    78  67  68 S12       29.76R
WAYNE          CLOUDY    75  67  76 SW6       29.74S
$$

NEZ050>053-065>068-078-088>093-211200-
SOUTHEAST NEBRASKA

CITY           SKY/WX    TMP DP  RH WIND       PRES   REMARKS
LINCOLN        CLOUDY    79  66  64 SW8       29.83R
OMAHA EPPLEY   CLOUDY    78  67  68 S9        29.77S
BEATRICE       CLOUDY    77  68  73 SW7       29.85R
FALLS CITY     PTCLDY    79  69  71 S10       29.81S
NEBRASKA CITY  CLOUDY    76  67  73 SW8       29.81R
PLATTSMOUTH    CLOUDY    78  66  66 S8        29.80S
$$

NEZ044-045-051>053-067-211200-
OMAHA AREA

CITY           SKY/WX    TMP DP  RH WIND       PRES   REMARKS
OMAHA EPPLEY   CLOUDY    78  67  68 S9        29.77S
BLAIR          CLOUDY    78  67  69 SW9       29.79R
FREMONT        LGT RAIN  77  68  73 SW15G21   29.79R
MILLARD        CLOUDY    80  68  68 S3        29.79R
OFFUTT AFB     CLOUDY    76  71  83 S6        29.78F
PLATTSMOUTH    CLOUDY    78  66  66 S8        29.80S
WAHOO          FAIR      78  66  66 SW12G17   29.80R
$$



USA.gov is the U.S. government's official web portal to all federal, state and local government web resources and services.